Temperature
17 17 18 18 18 18 18 18 18 18 18 18 19 18 18 18 18 17 17 17 17 17 17 17 16 16 16 16 16 16 16 16 16 16 15 15 15 15
17 17 17 17 17 18 18 18 18 18 18 18 18 18 18 18 17 17 17 17 17 16 16 16 16 16 16 16 16 16 16 16 16 16 15 15 15 15
17 17 17 17 17 17 17 17 17 18 18 18 18 18 18 17 17 17 17 17 17 16 16 16 16 16 16 16 16 16 16 16 15 15 15 15 15 15
17 17 17 17 17 17 17 17 17 17 17 17 17 17 17 17 17 17 16 16 16 16 16 16 16 16 16 16 16 16 16 15 15 15 15 15 15 15
17 17 17 17 17 17 17 17 17 17 17 17 17 17 17 17 16 16 16 16 16 16 16 16 16 16 16 16 15 15 15 15 15 15 15 15 14 14
16 16 16 16 16 16 16 16 16 16 16 16 16 16 16 16 16 16 16 16 16 15 15 15 15 15 15 15 15 15 15 15 15 14 14 14 14 14
16 16 16 16 16 16 16 16 16 16 16 15 15 15 15 15 15 15 15 15 15 15 15 15 15 15 15 15 15 14 14 14 14 14 14 13 13 13
15 15 15 15 15 15 15 15 15 15 15 15 15 14 14 14 14 14 14 14 14 14 14 14 14 14 14 14 14 14 14 13 13 13 13 13 13 12
15 15 15 15 15 15 15 15 14 14 14 14 14 14 14 14 14 13 13 13 13 13 13 13 13 13 13 13 13 13 13 13 12 12 12 12 12 12
14 14 14 14 14 14 14 14 14 14 13 13 13 13 13 13 13 12 12 12 12 13 13 12 13 13 13 13 12 12 12 12 12 12 11 11 11 11
14 14 14 14 14 14 14 13 13 13 13 13 13 12 12 12 12 12 12 11 11 12 12 11 11 11 12 12 12 12 11 11 11 11 11 11 11 10
13 13 13 13 13 13 13 13 12 12 12 12 12 12 11 11 11 11 11 10 10 10 11 10 10 10 10 11 11 11 11 11 11 10 10 10 10 10
12 12 12 12 12 12 12 12 12 12 12 11 11 11 11 10 10 10 10 10 10 10 10 10 10 10 9 9 10 10 10 10 10 10 10 10 9 9
12 12 11 11 11 11 11 11 11 11 11 11 10 10 10 10 10 10 10 10 10 10 10 9 9 9 9 9 9 9 9 9 9 9 9 9 9 9
11 11 11 11 11 11 10 10 10 10 10 10 10 10 9 9 9 9 9 9 9 9 9 9 9 8 8 8 8 8 8 9 9 9 9 9 8 8
11 10 10 10 10 10 10 9 9 9 9 9 9 9 9 9 9 9 9 9 9 9 9 8 8 8 8 8 8 8 8 8 8 8 8 8 8 8
10 10 10 10 10 9 9 9 9 9 9 8 8 8 8 8 8 8 8 8 8 8 8 8 8 8 7 7 7 7 7 7 7 7 7 7 7 7
10 10 9 9 9 9 9 8 8 8 8 8 8 8 8 8 8 8 7 7 7 7 7 7 7 7 7 7 7 7 7 7 7 7 7 7 7 7
9 9 9 8 8 8 8 8 7 7 7 7 7 7 7 7 7 7 7 7 7 7 6 7 6 6 6 6 6 6 6 6 6 6 6 6 6 6
9 8 8 8 8 7 7 7 7 7 7 6 6 6 6 6 6 6 6 6 6 6 6 6 6 6 6 6 6 6 6 6 6 6 6 6 6 6
8 8 7 7 7 7 7 6 6 6 6 6 6 6 6 6 6 6 6 6 6 6 6 6 6 5 5 6 6 6 6 6 6 6 6 6 5 5
7 7 7 6 6 6 6 6 6 6 5 5 5 5 5 5 5 5 5 5 5 5 5 5 5 5 5 5 5 5 5 6 5 5 5 5 5 5
6 6 6 6 6 6 5 5 5 5 5 5 5 5 5 5 5 5 5 5 5 5 5 5 5 5 5 5 5 5 5 5 5 5 5 5 5 5
Wind_Speed
6 6 6 6 5 4 3 3 3 3 3 2 1 3 4 5 10 11 9 16 20 20 20 19 19 19 19 18 17 17 17 16 16 15 15 14 14 15
5 5 5 5 4 3 3 3 3 3 3 2 2 1 1 2 7 6 6 11 17 19 20 20 19 19 18 18 18 17 17 16 16 15 15 15 14 14
6 6 6 6 4 3 3 2 2 2 3 3 2 1 1 1 2 5 6 8 12 17 20 20 20 19 19 18 17 17 17 16 16 16 15 15 15 15
6 5 5 5 5 3 3 2 2 2 3 4 3 2 1 1 2 3 5 6 7 12 16 18 18 17 17 17 17 17 17 16 16 15 15 15 15 15
4 4 4 4 4 3 2 2 2 3 2 3 3 2 2 2 2 3 4 3 6 6 10 13 14 15 15 15 15 15 15 15 14 14 15 15 15 15
2 1 1 2 3 3 3 3 2 2 2 2 2 2 1 2 0 2 3 3 4 4 3 6 10 14 15 15 14 14 13 13 13 13 14 14 14 14
1 1 1 2 1 1 1 0 1 1 1 2 2 2 2 2 2 2 3 3 3 2 2 3 3 5 8 11 13 12 12 12 13 13 13 13 13 13
2 1 1 2 2 2 3 2 1 0 1 1 2 1 2 3 3 3 3 3 3 2 2 4 2 2 3 4 7 11 12 13 13 13 13 13 13 13
3 2 1 2 2 1 2 2 1 1 1 1 1 1 1 2 3 3 3 3 4 4 3 4 3 3 3 3 8 11 13 13 13 13 13 13 14 14
5 4 3 3 3 2 2 2 2 2 1 2 1 1 1 2 2 2 3 4 4 3 2 3 3 4 5 3 6 8 10 11 12 13 14 14 15 15
7 7 5 5 6 3 3 2 3 2 4 4 3 2 1 2 3 3 3 4 4 3 2 2 4 4 4 3 3 4 6 9 11 13 14 15 15 14
6 7 10 9 9 7 4 3 3 2 2 1 1 1 0 1 2 2 3 4 4 3 4 4 4 4 4 3 3 4 5 8 11 12 13 14 14 9
6 6 5 8 9 10 8 6 4 3 2 1 1 2 2 2 3 2 2 2 3 3 4 4 4 4 3 5 4 4 4 4 5 7 10 12 11 8
6 5 5 7 9 9 7 7 7 5 3 3 4 4 4 3 3 3 3 3 3 4 4 3 2 3 4 5 5 5 5 5 4 3 4 6 8 10
5 5 4 5 5 5 6 7 7 5 4 5 4 4 3 3 2 3 3 4 5 5 4 3 2 3 3 5 5 6 6 5 4 4 4 4 3 3
4 3 3 2 3 4 5 4 4 4 4 4 3 3 3 3 3 3 3 4 4 4 4 6 5 4 4 5 5 6 5 5 5 4 4 4 5 5
1 1 2 3 3 4 4 4 5 5 5 4 4 4 4 4 4 3 4 4 4 5 5 4 5 6 5 5 5 5 5 5 5 5 5 5 4 3
5 4 5 5 5 5 5 5 5 5 5 5 5 5 5 5 4 4 4 4 5 5 5 4 5 5 5 4 3 4 5 5 6 6 5 5 5 3
5 6 6 6 5 6 6 6 5 5 5 5 5 5 5 5 5 4 4 4 5 5 5 4 4 5 6 7 4 4 5 6 6 5 5 5 5 4
5 6 5 5 5 6 6 6 5 5 5 5 5 6 6 6 6 6 5 5 5 5 5 4 4 5 5 6 6 6 7 5 5 5 6 5 3 3
6 6 6 6 6 6 5 5 5 5 6 5 5 6 6 6 6 6 6 7 6 5 6 5 5 7 5 4 5 5 4 6 6 4 5 5 5 4
5 5 5 6 5 5 5 5 5 5 6 6 6 6 6 6 6 7 7 7 6 6 6 6 5 5 5 5 6 6 6 5 6 8 5 3 3 3
5 5 5 5 5 5 6 6 7 7 7 7 7 7 7 6 6 6 6 6 6 7 7 6 6 6 6 6 6 6 7 6 4 3 3 5 6 7
Wind_Direction
226 226 231 248 249 252 253 242 233 258 265 249 224 201 182 175 177 192 201 204 208 214 218 223 227 231 234 236 239 241 244 246 248 250 252 255 255 254
219 226 227 240 250 239 239 245 235 235 253 249 243 251 188 192 173 192 208 201 211 217 220 223 226 229 232 235 238 240 243 245 247 249 251 253 255 257
221 221 222 229 243 248 242 240 244 234 246 264 259 277 208 191 174 229 232 211 214 217 220 222 224 227 230 234 238 240 241 243 245 248 250 253 255 258
217 220 222 225 222 241 252 247 249 243 236 253 267 276 252 224 195 230 255 249 233 221 216 220 223 226 230 233 235 237 240 243 246 250 254 257 259 261
217 214 221 227 223 224 230 256 268 266 241 239 255 261 251 261 238 248 262 282 277 249 220 220 223 225 230 234 236 238 240 243 247 251 255 257 259 261
213 199 218 225 232 232 223 225 243 275 288 278 271 280 282 286 273 272 285 287 288 289 275 242 231 229 231 235 238 239 239 243 248 251 254 256 259 260
102 98 79 67 101 161 191 189 242 266 280 273 274 287 319 338 337 315 308 305 303 320 318 291 256 239 239 240 240 237 236 241 247 250 253 255 257 260
91 96 93 64 61 100 104 95 86 224 271 271 294 322 338 348 343 332 329 323 313 332 316 299 305 270 257 234 216 222 230 236 240 245 250 254 258 262
69 58 35 42 54 71 110 105 89 62 220 230 278 307 338 353 339 327 322 308 285 286 289 287 298 303 300 258 220 223 229 237 244 249 253 257 262 266
62 54 51 36 13 10 80 85 78 58 77 107 97 47 33 359 344 322 307 303 290 309 335 302 316 309 309 297 247 238 241 246 249 252 256 261 264 266
62 49 46 41 19 43 95 93 85 64 68 88 110 132 114 18 1 353 346 344 336 337 349 320 309 309 301 299 298 272 265 261 260 261 262 264 266 269
73 59 50 48 39 45 60 66 58 31 42 70 91 140 239 18 25 16 1 351 341 332 1 350 333 336 319 323 342 323 295 281 274 272 269 268 270 271
78 68 52 49 53 52 56 55 37 11 356 8 77 66 57 46 48 38 28 355 329 308 328 341 330 333 319 318 321 316 308 304 292 285 277 273 271 256
72 72 69 59 55 49 49 33 21 14 14 33 46 40 34 26 7 356 344 314 276 268 293 317 315 323 320 312 309 315 319 316 311 300 306 300 278 266
78 84 78 62 62 59 48 31 27 31 35 38 34 25 9 353 340 339 339 336 322 326 347 346 324 315 304 299 304 310 312 311 315 323 322 316 302 289
79 101 105 67 43 54 52 46 47 37 32 30 18 7 358 0 4 357 350 342 336 332 338 337 331 308 299 296 298 303 310 312 318 318 318 313 316 321
41 90 82 75 65 60 59 52 45 34 22 13 13 8 3 359 356 359 355 345 343 338 335 335 335 320 300 298 305 311 316 319 322 327 324 316 309 318
40 56 58 52 51 51 49 50 48 36 22 19 18 12 4 1 357 357 353 346 344 340 339 337 335 333 329 325 328 332 332 326 323 320 316 313 313 327
56 59 56 48 41 41 42 39 41 38 24 20 18 9 1 357 356 355 355 354 348 339 337 343 351 353 342 334 328 337 324 317 318 318 316 314 312 319
59 58 53 48 44 37 37 34 32 33 21 14 16 8 0 358 357 354 355 356 346 338 339 350 357 350 329 316 310 309 311 313 320 322 320 315 315 320
57 54 46 44 41 36 31 25 25 28 18 10 16 5 359 358 357 350 348 350 345 340 346 349 340 324 307 309 311 314 322 326 323 315 318 320 321 322
53 55 49 46 41 32 28 21 19 23 15 10 7 358 355 356 352 346 346 344 343 345 344 337 330 328 329 327 324 323 326 330 337 340 336 314 310 317
52 46 48 45 40 29 24 19 20 21 16 7 2 356 353 348 343 341 342 342 341 345 344 338 335 334 332 328 327 326 326 327 324 333 339 319 297 279
Height
1546 1548 1549 1550 1552 1553 1554 1555 1556 1556 1556 1557 1557 1557 1558 1558 1558 1558 1558 1558 1559 1559 1559 1559 1559 1560 1560 1560 1561 1561 1561 1562 1562 1562 1562 1562 1562 1562
1543 1544 1545 1546 1548 1549 1550 1551 1552 1553 1553 1553 1554 1555 1555 1555 1554 1554 1554 1554 1554 1554 1555 1555 1555 1555 1555 1556 1556 1556 1557 1557 1557 1557 1557 1557 1557 1557
1539 1540 1541 1542 1543 1545 1546 1547 1548 1549 1549 1550 1551 1551 1551 1551 1551 1551 1551 1551 1550 1550 1550 1550 1550 1550 1551 1551 1551 1551 1551 1551 1551 1551 1551 1551 1551 1551
1535 1536 1537 1538 1539 1540 1542 1543 1544 1545 1546 1546 1547 1547 1547 1547 1547 1547 1547 1547 1547 1546 1546 1545 1545 1546 1546 1546 1546 1546 1546 1546 1546 1546 1545 1545 1545 1545
1531 1532 1533 1535 1535 1537 1538 1539 1540 1541 1542 1542 1543 1543 1543 1544 1543 1543 1543 1543 1542 1541 1541 1540 1540 1540 1540 1540 1540 1540 1540 1540 1540 1539 1539 1539 1539 1538
1527 1528 1530 1531 1532 1533 1534 1534 1536 1537 1538 1538 1538 1539 1539 1539 1539 1539 1538 1538 1538 1537 1536 1536 1536 1535 1535 1535 1535 1534 1534 1533 1533 1533 1533 1532 1532 1532
1523 1525 1526 1527 1528 1529 1530 1530 1532 1532 1533 1534 1535 1535 1535 1535 1534 1534 1534 1533 1533 1532 1532 1531 1531 1530 1530 1529 1529 1528 1528 1527 1527 1526 1526 1525 1525 1524
1520 1521 1522 1523 1524 1525 1526 1527 1528 1529 1529 1530 1531 1531 1531 1531 1531 1531 1530 1529 1528 1529 1528 1527 1526 1525 1525 1524 1524 1523 1522 1522 1521 1521 1520 1519 1518 1517
1518 1519 1520 1521 1522 1523 1523 1524 1525 1525 1526 1527 1527 1527 1528 1527 1527 1527 1526 1526 1525 1525 1524 1523 1523 1522 1521 1520 1519 1518 1518 1517 1516 1515 1514 1513 1512 1511
1517 1517 1518 1518 1519 1520 1521 1521 1522 1522 1522 1523 1523 1524 1525 1524 1524 1524 1523 1523 1522 1522 1521 1520 1519 1518 1517 1516 1516 1515 1514 1513 1511 1510 1509 1508 1507 1505
1516 1517 1517 1517 1518 1518 1518 1518 1519 1520 1521 1521 1521 1522 1522 1522 1522 1522 1521 1520 1520 1519 1519 1518 1516 1514 1513 1513 1512 1511 1510 1508 1507 1506 1504 1503 1501 1500
1516 1516 1516 1516 1516 1517 1517 1517 1518 1518 1519 1519 1520 1520 1520 1520 1520 1519 1519 1519 1518 1517 1516 1515 1513 1512 1509 1509 1508 1507 1506 1504 1503 1501 1500 1498 1497 1494
1516 1517 1517 1517 1517 1517 1517 1517 1517 1518 1518 1519 1519 1519 1519 1518 1518 1518 1518 1517 1516 1515 1514 1513 1511 1509 1508 1506 1504 1503 1502 1500 1499 1497 1496 1494 1492 1490
1518 1518 1518 1518 1518 1518 1518 1518 1518 1518 1519 1519 1519 1519 1518 1518 1518 1517 1517 1516 1515 1514 1512 1510 1508 1507 1505 1503 1501 1499 1498 1497 1495 1493 1491 1489 1487 1485
1519 1520 1520 1520 1520 1519 1519 1519 1519 1519 1519 1519 1519 1519 1518 1518 1517 1516 1515 1514 1513 1511 1509 1508 1506 1504 1502 1500 1498 1496 1494 1492 1491 1489 1487 1484 1482 1480
1521 1522 1522 1522 1521 1521 1521 1521 1520 1520 1520 1520 1519 1519 1518 1517 1516 1515 1513 1512 1510 1509 1507 1506 1504 1502 1499 1497 1495 1493 1491 1489 1487 1485 1482 1480 1478 1476
1523 1523 1524 1524 1523 1523 1523 1523 1522 1521 1520 1520 1520 1519 1518 1517 1516 1514 1513 1511 1509 1507 1505 1503 1501 1499 1497 1495 1493 1491 1489 1486 1484 1482 1479 1476 1475 1473
1524 1525 1525 1525 1525 1525 1525 1524 1523 1522 1521 1521 1520 1519 1518 1516 1515 1514 1512 1510 1508 1506 1504 1502 1499 1497 1495 1493 1492 1488 1486 1483 1481 1479 1476 1474 1471 1469
1526 1526 1527 1527 1527 1527 1526 1525 1524 1523 1522 1521 1520 1519 1518 1516 1515 1513 1511 1509 1507 1506 1503 1501 1498 1496 1494 1491 1489 1487 1484 1481 1478 1476 1473 1471 1468 1465
1528 1529 1529 1529 1529 1528 1527 1526 1525 1524 1523 1522 1521 1519 1518 1516 1515 1513 1511 1509 1507 1505 1503 1500 1498 1495 1493 1491 1487 1485 1483 1480 1476 1473 1470 1467 1465 1463
1530 1530 1530 1530 1529 1529 1528 1527 1526 1525 1523 1522 1521 1519 1518 1516 1514 1513 1511 1509 1506 1504 1502 1500 1497 1495 1492 1489 1486 1483 1481 1478 1475 1472 1468 1465 1462 1460
1532 1532 1531 1531 1530 1529 1528 1527 1526 1525 1523 1522 1521 1519 1517 1516 1514 1512 1510 1508 1506 1504 1501 1499 1496 1493 1490 1487 1484 1481 1478 1476 1473 1470 1467 1464 1461 1458
1533 1533 1532 1532 1530 1530 1528 1527 1526 1524 1523 1521 1520 1518 1517 1515 1513 1511 1509 1507 1505 1503 1500 1497 1494 1492 1489 1486 1483 1480 1477 1474 1471 1468 1466 1463 1461 1458